Weather History for KBDH - June, 2013

Change the Weather History Date:

Sunday, June 9, 2013

  Actual Average (KLJF) Record (KLJF)
Temperature  
Mean Temperature 62 °F -  
Max Temperature 64 °F 78 °F 95 °F (1956)
Min Temperature 59 °F 53 °F 41 °F (1988)
Degree Days  
Heating Degree Days 4    
Growing Degree Days 12 (Base 50)    
Moisture  
Dew Point 56 °F    
Average Humidity 82    
Maximum Humidity 88    
Minimum Humidity 68    
Precipitation  
Precipitation 0.65 in - - ()
Sea Level Pressure  
Sea Level Pressure 29.80 in    
Wind  
Wind Speed 14 mph (East)    
Max Wind Speed 23 mph    
Max Gust Speed 31 mph    
Visibility 7 miles    
Events Rain    
Averages and records for this station are not official NWS values.
T = Trace of Precipitation, MM = Missing Value Source: NWS Daily Summary

Daily Weather History Graph

Daily Weather History Graph

Search for Another Location

Airport or City:

Trip Planner

Search our weather history database for the weather conditions in past years. The results will help you decide how hot, cold, wet, or windy it might be!

Date:

Astronomy

Jun. 09, 2013 Rise Set
Actual Time 5:33 AM CDT 9:06 PM CDT
Civil Twilight 4:56 AM CDT 9:43 PM CDT
Nautical Twilight 4:07 AM CDT 10:33 PM CDT
Astronomical Twilight 3:02 AM CDT 11:37 PM CDT
Moon 6:33 AM CDT (6/9) 9:50 PM CDT (6/9)
Length of Visible Light 16h 47m
Length of Day
15h 33m
New Moon, 1% of the Moon is Illuminated
Jun 9
New Moon
Jun 16
First Quarter
Jun 23
Full
Jun 29
Last Quarter
Jul 8
New

Hourly Weather History & Observations

Time (CDT) Temp. Dew Point Humidity Pressure Visibility Wind Dir Wind Speed Gust Speed Precip Events Conditions
12:15 AM 62.6 °F 51.8 °F 68% 29.87 in 10.0 mi ESE 13.8 mph - N/A   Overcast
12:35 AM 62.6 °F 53.6 °F 72% 29.87 in 10.0 mi ESE 12.7 mph - N/A Rain Light Rain
12:55 AM 62.6 °F 53.6 °F 72% 29.87 in 10.0 mi ESE 13.8 mph - 0.01 in Rain Rain
1:15 AM 62.6 °F 53.6 °F 72% 29.86 in 10.0 mi ESE 12.7 mph - N/A Rain Light Rain
1:35 AM 60.8 °F 53.6 °F 77% 29.85 in 10.0 mi ESE 13.8 mph 20.7 mph 0.01 in Rain Light Rain
1:55 AM 60.8 °F 53.6 °F 77% 29.85 in 10.0 mi ESE 16.1 mph 19.6 mph 0.02 in Rain Light Rain
2:15 AM 60.8 °F 55.4 °F 82% 29.84 in 10.0 mi East 15.0 mph 24.2 mph 0.02 in Rain Light Rain
2:36 AM 60.8 °F 55.4 °F 82% 29.83 in 7.0 mi East 15.0 mph 20.7 mph 0.03 in Rain Light Rain
2:55 AM 60.8 °F 55.4 °F 82% 29.82 in 10.0 mi East 15.0 mph 21.9 mph 0.06 in Rain Heavy Rain
3:15 AM 60.8 °F 55.4 °F 82% 29.81 in 10.0 mi East 19.6 mph 24.2 mph 0.02 in Rain Heavy Rain
3:36 AM 60.8 °F 55.4 °F 82% 29.80 in 7.0 mi East 15.0 mph - 0.06 in Rain Light Rain
3:55 AM 60.8 °F 55.4 °F 82% 29.80 in 7.0 mi East 16.1 mph 21.9 mph 0.08 in Rain Rain
4:15 AM 60.8 °F 55.4 °F 82% 29.79 in 7.0 mi East 16.1 mph 23.0 mph 0.03 in Rain Light Rain
4:36 AM 60.8 °F 55.4 °F 82% 29.78 in 10.0 mi East 17.3 mph 25.3 mph 0.07 in Rain Rain
4:55 AM 60.8 °F 55.4 °F 82% 29.77 in 10.0 mi East 21.9 mph 27.6 mph 0.10 in Rain Rain
5:15 AM 60.8 °F 55.4 °F 82% 29.76 in 7.0 mi East 18.4 mph - 0.04 in Rain Light Rain
5:36 AM 60.8 °F 55.4 °F 82% 29.76 in 10.0 mi East 17.3 mph 25.3 mph 0.08 in Rain Heavy Rain
5:55 AM 60.8 °F 55.4 °F 82% 29.76 in 10.0 mi East 18.4 mph 26.5 mph 0.11 in Rain Light Rain
6:15 AM 60.8 °F 55.4 °F 82% 29.76 in 5.0 mi East 17.3 mph 26.5 mph 0.05 in Rain Rain
6:36 AM 60.8 °F 55.4 °F 82% 29.76 in 5.0 mi East 21.9 mph 26.5 mph 0.09 in Rain Light Rain
6:55 AM 59.0 °F 55.4 °F 88% 29.76 in 3.0 mi East 20.7 mph 25.3 mph 0.14 in Rain Heavy Rain
7:15 AM 59.0 °F 55.4 °F 88% 29.75 in 2.5 mi East 18.4 mph 25.3 mph 0.03 in Rain Rain
7:36 AM 59.0 °F 55.4 °F 88% 29.75 in 4.0 mi East 18.4 mph 26.5 mph 0.04 in Rain Rain
7:55 AM 59.0 °F 55.4 °F 88% 29.75 in 7.0 mi East 18.4 mph 26.5 mph 0.07 in Rain Heavy Rain
8:15 AM 59.0 °F 55.4 °F 88% 29.75 in 5.0 mi East 23.0 mph 31.1 mph N/A Rain Light Rain
8:35 AM 59.0 °F 55.4 °F 88% 29.75 in 5.0 mi East 19.6 mph 29.9 mph N/A   Overcast
8:55 AM 59.0 °F 55.4 °F 88% 29.75 in 7.0 mi East 18.4 mph 26.5 mph N/A   Overcast
9:15 AM 59.0 °F 55.4 °F 88% 29.75 in 10.0 mi East 21.9 mph 27.6 mph N/A   Overcast
9:35 AM 59.0 °F 55.4 °F 88% 29.75 in 7.0 mi East 21.9 mph 28.8 mph N/A   Overcast
9:55 AM 59.0 °F 55.4 °F 88% 29.75 in 10.0 mi East 20.7 mph 26.5 mph N/A   Overcast
10:15 AM 59.0 °F 55.4 °F 88% 29.75 in 2.0 mi East 18.4 mph 21.9 mph 0.03 in Rain Rain
10:35 AM 59.0 °F 55.4 °F 88% 29.75 in 1.8 mi East 16.1 mph 20.7 mph 0.06 in Rain Light Rain
10:55 AM 59.0 °F 55.4 °F 88% 29.76 in 2.0 mi East 15.0 mph - 0.06 in Rain Light Rain
11:15 AM 59.0 °F 55.4 °F 88% 29.76 in 3.0 mi East 16.1 mph 23.0 mph N/A Rain Light Rain
11:35 AM 59.0 °F 55.4 °F 88% 29.76 in 5.0 mi East 12.7 mph - N/A   Overcast
11:55 AM 60.8 °F 57.2 °F 88% 29.77 in 7.0 mi East 16.1 mph 20.7 mph N/A   Overcast
12:15 PM 60.8 °F 57.2 °F 88% 29.77 in 7.0 mi East 12.7 mph - N/A   Overcast
12:35 PM 60.8 °F 57.2 °F 88% 29.77 in 5.0 mi East 15.0 mph 20.7 mph N/A   Overcast
12:55 PM 62.6 °F 59.0 °F 88% 29.78 in 10.0 mi ESE 16.1 mph 24.2 mph N/A   Overcast
1:15 PM 62.6 °F 57.2 °F 82% 29.78 in 10.0 mi East 17.3 mph 23.0 mph N/A   Overcast
1:35 PM 64.4 °F 57.2 °F 77% 29.78 in 7.0 mi East 15.0 mph - N/A   Mostly Cloudy
1:55 PM 62.6 °F 57.2 °F 82% 29.78 in 10.0 mi East 13.8 mph 19.6 mph N/A   Overcast
2:15 PM 64.4 °F 55.4 °F 73% 29.79 in 10.0 mi East 16.1 mph - N/A   Overcast
2:35 PM 64.4 °F 57.2 °F 77% 29.78 in 10.0 mi East 15.0 mph - N/A   Overcast
2:56 PM 64.4 °F 57.2 °F 77% 29.78 in 10.0 mi East 13.8 mph - N/A   Overcast
3:15 PM 64.4 °F 57.2 °F 77% 29.78 in 7.0 mi East 15.0 mph - N/A   Overcast
3:35 PM 64.4 °F 57.2 °F 77% 29.78 in 7.0 mi East 13.8 mph - N/A   Overcast
3:56 PM 64.4 °F 57.2 °F 77% 29.79 in 7.0 mi East 11.5 mph - N/A   Overcast
4:15 PM 64.4 °F 57.2 °F 77% 29.79 in 7.0 mi ENE 9.2 mph - N/A   Overcast
4:35 PM 62.6 °F 57.2 °F 82% 29.80 in 7.0 mi East 10.4 mph - N/A   Overcast
4:56 PM 64.4 °F 57.2 °F 77% 29.79 in 7.0 mi East 12.7 mph - N/A   Overcast
5:15 PM 64.4 °F 57.2 °F 77% 29.80 in 7.0 mi ENE 9.2 mph 16.1 mph N/A   Overcast
5:35 PM 62.6 °F 57.2 °F 82% 29.81 in 7.0 mi ENE 9.2 mph - N/A   Overcast
5:56 PM 62.6 °F 57.2 °F 82% 29.81 in 7.0 mi ENE 6.9 mph - N/A   Overcast
6:15 PM 62.6 °F 57.2 °F 82% 29.81 in 7.0 mi ENE 9.2 mph - N/A   Overcast
6:35 PM 64.4 °F 57.2 °F 77% 29.81 in 7.0 mi NE 9.2 mph - N/A   Overcast
6:56 PM 62.6 °F 57.2 °F 82% 29.82 in 7.0 mi ENE 6.9 mph - N/A   Overcast
7:15 PM 62.6 °F 57.2 °F 82% 29.82 in 7.0 mi ENE 5.8 mph - N/A   Overcast
7:35 PM 62.6 °F 57.2 °F 82% 29.82 in 5.0 mi NE 6.9 mph - N/A   Haze
7:56 PM 62.6 °F 57.2 °F 82% 29.83 in 5.0 mi ENE 9.2 mph - N/A   Haze
8:15 PM 62.6 °F 57.2 °F 82% 29.82 in 5.0 mi NE 8.1 mph - N/A   Haze
8:35 PM 62.6 °F 57.2 °F 82% 29.83 in 5.0 mi NNE 8.1 mph - N/A   Haze
8:56 PM 62.6 °F 57.2 °F 82% 29.83 in 5.0 mi NE 5.8 mph - N/A   Haze
9:15 PM 62.6 °F 57.2 °F 82% 29.84 in 7.0 mi NE 6.9 mph - N/A   Overcast
9:35 PM 62.6 °F 57.2 °F 82% 29.85 in 7.0 mi NNE 4.6 mph - N/A   Overcast
9:55 PM 62.6 °F 57.2 °F 82% 29.85 in 5.0 mi North 3.5 mph - N/A   Haze
10:15 PM 62.6 °F 57.2 °F 82% 29.85 in 5.0 mi North 4.6 mph - N/A   Haze
10:35 PM 62.6 °F 57.2 °F 82% 29.85 in 5.0 mi North 3.5 mph - N/A   Haze
10:55 PM 62.6 °F 57.2 °F 82% 29.86 in 5.0 mi North 3.5 mph - N/A   Haze
11:15 PM 60.8 °F 57.2 °F 88% 29.86 in 5.0 mi North 4.6 mph - N/A   Overcast
11:35 PM 60.8 °F 57.2 °F 88% 29.86 in 4.0 mi North 3.5 mph - N/A   Overcast
11:55 PM 60.8 °F 57.2 °F 88% 29.86 in 4.0 mi Calm Calm - N/A   Overcast